EDT,Max TemperatureF,Mean TemperatureF,Min TemperatureF,Max Dew PointF,MeanDew PointF,Min DewpointF,Max Humidity, Mean Humidity, Min Humidity, Max Sea Level PressureIn, Mean Sea Level PressureIn, Min Sea Level PressureIn, Max VisibilityMiles, Mean VisibilityMiles, Min VisibilityMiles, Max Wind SpeedMPH, Mean Wind SpeedMPH, Max Gust SpeedMPH,PrecipitationIn, CloudCover, Events, WindDirDegrees
2011-10-1,75,65,55,50,46,39,82,50,27,29.97,29.90,29.83,10,10,10,13,5,23,0.00,0,,317
2011-10-2,75,60,46,45,41,36,81,54,27,30.10,30.04,30.00,10,10,10,12,4,18,0.00,0,,319
2011-10-3,77,62,46,48,44,39,93,61,26,30.16,30.11,30.07,10,10,10,7,2,,0.00,0,,304
2011-10-4,78,62,46,55,50,45,100,69,34,30.23,30.18,30.15,10,8,0,10,2,17,0.00,0,,68
2011-10-5,78,66,53,61,56,52,100,75,47,30.23,30.19,30.16,10,9,1,17,3,21,0.00,1,,40
2011-10-6,80,66,53,64,60,54,100,80,54,30.22,30.18,30.15,10,7,0,21,4,29,0.00,2,Thunderstorm,44
2011-10-7,82,73,64,68,64,61,94,78,58,30.26,30.23,30.19,10,10,10,24,9,33,0.00,3,Thunderstorm,26
2011-10-8,80,74,69,68,64,61,88,70,51,30.28,30.24,30.20,10,10,10,22,12,36,0.00,4,,56
2011-10-9,77,72,66,70,67,64,94,89,78,30.18,30.11,30.03,10,9,2,22,9,28,0.00,7,,28
2011-10-10,80,74,69,73,71,64,94,87,69,29.97,29.87,29.81,10,7,2,30,18,40,0.00,8,Thunderstorm,65
2011-10-11,80,74,69,73,70,68,100,89,74,29.85,29.82,29.78,10,8,1,13,2,16,0.00,7,Thunderstorm,56
2011-10-12,82,76,69,73,70,68,100,84,62,29.85,29.81,29.77,10,8,0,10,4,,0.00,6,,229
2011-10-13,84,76,68,70,66,61,100,76,45,29.81,29.77,29.68,10,10,7,14,4,20,0.00,4,,249
2011-10-14,80,70,60,61,57,50,94,71,34,29.90,29.84,29.78,10,10,10,14,6,23,0.00,0,,275
2011-10-15,86,70,53,55,52,48,94,65,27,30.10,30.04,30.00,10,10,10,9,4,,0.00,0,,291
2011-10-16,80,66,53,59,52,45,100,63,28,30.16,30.12,30.08,10,9,0,9,4,,0.00,0,,31
2011-10-17,84,68,51,63,56,52,100,75,33,30.08,30.02,29.92,10,7,0,8,1,,0.00,0,,178
2011-10-18,78,70,62,72,67,63,100,91,74,29.91,29.82,29.68,10,6,0,14,2,21,0.00,7,,121
2011-10-19,78,69,60,73,67,50,100,85,65,29.63,29.50,29.45,10,9,2,21,8,32,0.00,8,,236
2011-10-20,66,55,44,46,41,37,87,64,37,30.03,29.94,29.83,10,10,10,18,8,26,0.00,0,,264
2011-10-21,69,56,42,45,42,36,100,70,30,30.18,30.12,30.06,10,10,10,9,2,20,0.00,0,,283
2011-10-22,69,54,39,46,41,37,100,70,33,30.13,30.10,30.05,10,9,2,9,1,,0.00,0,,15
2011-10-23,73,58,44,54,48,43,100,77,50,30.11,30.07,30.03,10,8,0,13,2,,0.00,2,,28
2011-10-24,75,62,50,55,51,46,100,74,36,30.14,30.09,30.05,10,10,0,10,3,16,0.00,1,,327
2011-10-25,77,60,44,59,51,45,100,77,39,30.25,30.19,30.15,10,7,0,13,2,16,0.00,0,,60
2011-10-26,78,64,51,66,54,52,100,76,39,30.19,30.13,30.03,10,6,0,8,2,,0.00,6,,66
2011-10-27,82,71,60,64,59,54,94,73,39,30.02,29.96,29.88,10,10,10,8,1,,0.00,6,,219
2011-10-28,80,70,60,64,61,54,100,79,39,29.99,29.94,29.90,10,7,0,7,1,,0.00,4,,217
2011-10-29,68,64,59,68,59,41,100,83,40,29.96,29.91,29.88,10,8,1,16,4,24,0.00,6,,295
2011-10-30,64,54,44,48,44,39,82,67,52,30.26,30.20,30.14,10,10,10,21,8,29,0.00,2,,22
2011-10-31,69,60,51,61,54,48,94,85,73,30.21,30.14,30.07,10,10,7,10,4,,0.00,5,,4